DELTA 1 DEB, 10718

Orbit data source: Space-Track

DELTA 1 DEB, 10718 is space debris in SSO originally from a launch on Thu, 29 Jul 1976 UTC launched from the Air Force Western Test Range (AFWTR). Debris objects in space refer to the collection of defunct objects orbiting the Earth. Examples of debris include non-operational satellites, rocket bodies, and fragments generated from explosions, collisions, or faulty payload assembly.

Loading next visibility...
Identifier
10718, 1976-077AP
Orbit
SSO
Last TLE update
17 hours ago
Origin
Manufacturer
Unknown
Mission
Spacecraft
Bus & Motor
Unknown
Mass
Unknown
Launch date (UTC)
1976-07-29 (49 years ago)
Launch vehicle
Unknown
Launch site
Air Force Western Test Range (AFWTR)
Object type
Payload
Rocket body
Debris
Shape & HBR
Unknown
Radar Cross Section
Small (<0.1 m²)

Expand to show TLE details & history

TLE from 17 hours ago
0 DELTA 1 DEB
1 10718U 76077AP  25181.68355854  .00000020  00000-0  45390-3 0  9991
2 10718 101.6487 217.3029 0052937  23.6498  91.6406 12.42827296217108
Epoch: 2025-06-30T16:24Z
TLE epoch observation values (Epoch: 2025-06-30T16:24:19.457Z)
Latitude
61.8587°
Longitude
-105.21463°
Altitude
1,506.468 km
Speed
7.116 km/s
True Right ascension
03h 59m 25s
True Declination
61° 43' 45"
Sunlit
Object was in daylight at epoch
Visualization orbit readout
Latitude
78.40488°
Longitude
-36.01555°
Altitude
1,491.578 km
Speed
7.132 km/s
Apparent Right ascension
09h 07m 24s
Apparent Declination
29° 13' 18"
Sunlit
Object is in daylight
Visualization observer readout
Local Sidereal Time
21:17:28
Azimuth
2.35° NNE
Elevation
-20.823°
Doppler factor
1
Orbital elements
Apogee altitude
1,533.854 km
Perigee altitude
1,450.528 km
Semi-major axis
7,870.328 km
Eccentricity
0.00529
Inclination
101.6487°
RAAN
217.3029°
Arg. of periapsis
23.6498°
True anomaly
Unknown
Mean anomaly
91.6406°
Eccentric anomaly
Unknown
Mean motion
3.10852 °/min
Orbital period
115.81 mins
BSTAR
0.0004539
Loading maneuver chart data...
Loading SW <> Apogee altitude chart data...
Loading historical data...
Loading historical data...
Loading historical data...
Loading historical data...
Loading historical data...
Loading historical data...
Loading historical data...

DELTA 1 DEB Visibility forecast

Observer location: undefined°, undefined°

Span
Click to sort rows by Start time (UTC) header in descending order
Start Az.
Max El. time (UTC)
Max El. Az.
Max El.
End time (UTC)
End Az.
12 mins2025-07-01 13:42:09.508Z47.365° ENE2025-07-01 13:48:09.508Z93.193° ESE19.773°2025-07-01 13:54:09.508Z138.184° SSE
16 mins2025-07-01 15:35:09.508Z14.75° NNE2025-07-01 15:42:09.508Z327.999° NNW44.442°2025-07-01 15:51:09.508Z204.615° SW
9 mins2025-07-01 17:31:09.508Z340.751° N2025-07-01 17:35:09.508Z308.591° NW18.263°2025-07-01 17:40:09.508Z271.118° WNW
12 mins2025-07-02 00:47:09.508Z110.785° ESE2025-07-02 00:53:09.508Z55.445° ENE27.84°2025-07-02 00:59:09.508Z3.401° NNE
15 mins2025-07-02 02:39:09.508Z179.796° S2025-07-02 02:46:09.508Z254.61° W40.802°2025-07-02 02:54:09.508Z335.244° NNW
|